Wind_Speed
29 28 28 27 27 26 25 25 25 25 25 26 26 27 27 28 28 28 28 27 25 23 24 27 31 34 35 33 31 29 27 25 23 22 20 19 18 17 16 15 13 10 7 5 3 0 2 3 4 6 7 9 10 11 12 13 13 14 15 17 19 20 20 20 19 18 17 18 20 21 23 24 26 27 28 28 27 26 26 27 28 29 28 25 24 24 25
29 28 28 27 27 26 25 25 25 26 26 27 27 28 28 28 28 28 28 27 26 26 28 32 35 37 36 34 32 29 27 25 22 20 19 18 18 17 16 14 11 9 7 5 4 2 2 3 4 6 7 9 10 12 13 14 14 15 17 18 20 22 23 24 25 25 24 22 22 23 24 26 27 29 30 31 32 32 31 29 29 31 32 31 29 27 27
28 28 27 27 26 26 25 25 26 26 27 28 28 28 29 29 29 29 27 27 27 29 32 36 38 38 36 34 31 28 26 23 21 20 19 18 17 16 14 12 10 8 7 5 4 4 5 5 6 7 9 10 11 13 14 15 16 17 18 19 20 22 24 26 28 30 32 32 30 29 28 28 29 30 32 33 35 35 36 35 33 32 33 34 33 32 31
28 28 27 27 26 26 25 26 27 28 28 29 29 29 29 29 29 28 28 28 30 32 36 39 39 38 36 33 31 28 26 23 22 20 19 18 17 15 13 11 10 8 7 7 6 6 7 7 8 9 10 12 13 15 16 18 18 19 20 21 22 24 26 27 28 30 32 34 36 36 35 34 34 34 35 35 36 37 38 38 38 36 35 35 35 35 35
28 28 27 27 27 26 26 27 28 29 29 30 30 30 30 30 29 29 30 31 32 35 37 39 39 37 35 33 31 30 28 25 23 22 21 19 17 15 13 12 11 9 8 8 7 7 8 9 10 11 12 14 15 17 19 20 22 22 24 25 26 27 29 29 30 31 32 33 35 37 38 39 39 40 40 41 41 41 41 41 41 40 39 37 36 36 37
28 28 28 27 27 27 27 28 29 30 30 31 31 31 30 30 30 31 32 33 36 38 40 40 39 36 34 33 32 30 28 26 25 23 21 20 18 16 15 14 12 11 10 10 9 9 9 10 10 11 12 14 16 18 21 23 24 26 27 28 30 31 32 33 33 34 35 36 37 38 39 40 42 43 45 46 47 47 47 47 46 45 43 40 38 38 37
28 28 28 28 28 28 28 29 30 31 31 32 32 31 31 31 32 33 34 37 40 42 42 41 40 37 35 34 32 29 27 26 24 23 22 21 19 17 16 15 14 13 12 12 11 11 11 11 11 12 13 14 16 19 21 24 26 27 29 30 32 33 35 36 37 37 38 39 40 41 42 43 44 45 47 49 49 50 51 52 52 51 49 46 42 40 38
29 29 28 28 29 29 30 30 31 32 33 33 32 32 33 33 35 36 38 41 43 44 44 43 41 38 36 33 31 28 26 25 24 24 23 21 20 18 17 16 15 14 14 13 13 13 13 13 13 14 15 17 18 20 22 24 26 27 29 31 33 35 36 37 38 39 40 41 42 42 43 43 44 46 47 49 50 50 51 52 53 54 53 52 48 44 41
29 29 29 29 30 31 31 32 33 34 34 34 34 34 35 36 37 39 42 44 46 46 45 43 40 37 34 32 29 27 26 25 24 23 22 21 21 20 18 17 16 16 15 15 15 15 15 16 16 17 18 20 22 23 24 25 27 28 30 32 34 36 37 39 40 40 41 42 42 43 44 45 46 47 48 50 50 51 51 51 52 52 52 52 50 48 45
29 30 30 30 31 32 33 33 34 35 36 36 36 36 37 39 40 43 45 47 47 46 43 40 37 34 32 31 29 28 27 26 24 24 23 23 22 20 19 18 18 18 18 17 17 17 17 18 19 20 21 23 24 26 28 29 29 31 32 34 36 38 40 41 42 43 43 44 45 46 47 48 49 50 51 52 53 53 53 53 52 51 50 49 48 48 47
30 30 31 31 32 33 34 35 36 37 38 38 38 39 40 42 43 45 47 47 46 44 41 38 36 34 33 32 31 29 28 27 26 26 25 24 22 20 20 20 20 19 19 19 19 19 19 20 21 23 24 25 26 29 31 32 33 34 35 37 38 41 42 44 45 46 47 48 49 49 50 51 52 54 55 56 56 57 57 56 54 52 50 48 47 47 48
30 31 32 33 33 34 35 36 38 39 39 40 40 41 43 44 46 47 48 47 45 42 40 38 36 35 35 34 32 30 29 28 28 27 25 23 23 22 22 21 21 21 21 21 20 21 21 23 24 25 26 27 28 31 33 35 36 37 38 39 41 43 45 46 48 49 50 51 52 53 54 56 57 58 59 59 59 59 59 58 56 53 51 49 48 48 50
31 32 33 34 34 35 36 38 39 41 41 42 42 44 45 47 48 48 48 46 44 42 40 39 38 37 35 34 33 31 30 30 28 26 25 25 25 24 23 22 22 23 23 22 22 23 23 25 26 27 28 29 31 33 35 37 39 40 41 42 44 45 47 48 50 51 52 54 55 56 58 59 60 61 61 61 61 61 60 58 56 54 51 49 49 49 51
32 33 34 35 35 37 38 39 41 42 43 44 45 46 47 48 49 49 48 46 44 43 41 40 38 37 36 35 34 32 32 31 29 26 26 27 26 25 24 24 24 24 24 24 24 25 25 27 28 29 30 31 32 34 36 38 40 42 43 44 46 48 49 51 52 53 54 55 56 58 59 60 62 63 63 63 63 62 61 58 56 54 52 51 52 53 53
32 34 35 36 36 37 39 40 43 44 45 46 47 48 49 50 50 49 48 46 45 44 42 41 39 38 37 36 35 34 33 32 29 28 28 28 27 25 25 25 26 26 26 26 26 27 28 29 30 31 32 33 35 36 38 40 42 43 44 46 47 49 51 52 53 54 55 56 57 59 60 62 64 65 64 64 64 63 61 58 55 53 53 53 55 56 55
33 35 36 36 37 38 40 42 44 46 46 47 48 49 50 51 50 50 49 47 46 45 43 42 40 39 38 37 36 35 34 33 31 30 29 29 27 26 26 27 27 28 28 28 29 29 30 31 32 33 34 35 37 39 40 42 43 45 46 47 49 51 52 54 55 56 57 58 59 61 62 64 66 67 66 66 65 63 60 57 55 54 55 56 58 58 56
34 35 36 37 38 39 41 43 45 47 48 48 50 51 51 51 51 50 49 48 47 46 45 43 41 40 39 37 37 36 35 34 32 31 30 29 28 27 28 29 30 30 30 30 31 32 33 34 34 35 36 38 39 41 43 44 45 47 48 49 51 53 54 56 57 58 59 60 61 63 64 66 68 68 68 67 65 62 59 56 55 55 57 59 59 58 55
35 36 37 38 39 40 42 44 46 48 49 49 50 51 52 52 52 51 50 49 49 47 46 44 42 41 40 39 38 37 36 35 34 33 32 31 30 29 30 31 32 33 33 33 34 35 36 36 37 37 39 40 42 43 45 46 47 48 50 51 53 54 56 57 58 59 60 62 63 65 66 68 69 70 69 67 64 61 58 56 56 57 59 60 59 57 55
35 36 37 38 39 40 42 45 47 49 50 50 51 52 53 53 53 52 51 51 50 48 47 45 43 42 42 41 40 39 38 37 36 34 33 33 32 31 32 33 34 34 35 36 36 38 38 39 40 40 41 43 44 46 47 48 49 50 52 53 55 57 58 59 60 61 63 64 65 67 69 70 70 70 70 67 63 59 57 55 57 59 61 61 59 56 53
35 37 38 38 39 41 43 45 48 50 51 51 52 52 53 53 53 53 52 52 51 49 48 46 45 44 43 42 41 41 40 38 37 36 36 35 34 34 34 35 36 36 37 38 38 39 40 41 42 43 44 46 47 48 50 51 52 53 54 56 58 59 60 61 62 63 65 66 67 69 70 71 71 70 69 66 62 58 56 56 58 60 62 61 59 55 51
36 37 38 39 40 41 43 45 48 51 52 52 52 53 53 54 54 54 53 53 51 50 49 48 47 46 45 44 43 42 41 40 39 38 38 37 37 36 36 37 38 38 39 40 40 41 42 43 44 45 46 48 49 50 51 52 54 55 57 58 60 61 62 62 64 65 66 67 69 70 71 72 72 70 67 64 60 57 57 58 60 61 62 61 58 55 50
35 37 38 39 40 41 43 46 49 51 52 53 53 53 54 54 54 54 54 53 52 51 50 49 48 47 46 45 45 44 43 42 41 40 40 40 39 39 39 39 40 40 41 42 42 43 44 45 46 47 48 49 50 51 53 54 55 57 59 60 61 62 63 64 65 66 68 69 70 71 72 73 72 69 65 61 58 57 58 61 63 63 62 60 57 54 49
35 37 38 39 40 41 43 45 49 51 53 53 53 53 54 54 54 54 54 54 53 52 51 50 49 49 48 47 46 46 45 44 43 42 42 42 42 42 42 42 42 42 43 44 45 45 46 47 48 49 50 51 52 52 53 55 56 58 59 61 61 62 63 65 66 67 69 70 71 72 72 72 70 67 63 59 58 58 60 63 64 64 62 60 57 52 47
35 36 38 39 40 41 43 45 49 52 53 54 54 54 54 54 55 55 55 54 53 53 52 51 51 50 49 49 48 48 47 46 45 45 44 44 44 44 44 44 44 45 45 46 47 47 48 49 50 51 52 53 53 54 55 56 58 59 60 60 61 62 64 65 67 68 70 71 72 72 71 70 67 63 60 58 58 60 62 64 65 64 62 60 56 52 46
35 36 38 39 40 41 43 45 49 52 53 54 54 54 54 54 55 55 55 54 54 53 53 52 52 51 51 50 49 49 48 48 47 47 46 46 46 46 46 46 47 47 47 48 48 49 49 50 51 52 53 54 55 55 57 58 59 59 60 61 62 63 65 66 67 69 71 72 73 72 70 67 63 60 58 58 60 61 63 64 64 63 62 59 56 51 46
34 36 37 39 40 42 43 46 49 51 53 54 54 54 54 54 55 55 54 54 54 54 53 53 53 53 52 51 50 50 50 49 49 48 48 48 48 48 48 48 49 49 49 50 50 50 51 51 52 53 54 55 56 57 58 59 59 60 60 61 62 64 66 67 68 70 72 72 72 71 68 64 60 57 58 60 62 63 64 63 62 61 60 58 54 50 44
34 36 37 39 40 42 44 46 48 51 53 54 54 54 54 54 55 54 54 54 54 54 54 54 54 54 53 52 52 52 51 51 50 50 50 49 50 50 50 50 50 51 51 51 51 52 52 52 53 54 55 56 57 58 58 59 59 60 60 62 63 65 66 68 69 70 71 71 71 69 65 60 56 56 58 61 64 65 64 63 62 60 58 56 52 48 43
34 35 37 38 40 42 44 46 48 50 52 54 54 54 54 54 54 54 54 54 54 54 54 54 54 54 54 53 53 53 52 52 52 51 51 51 51 51 51 51 52 52 52 52 53 53 53 54 55 56 56 57 58 58 58 59 59 60 61 62 64 65 67 69 70 70 70 70 68 65 61 58 56 56 59 62 63 64 63 62 61 59 57 53 49 46 42
34 35 37 38 40 42 44 46 48 50 52 53 54 54 54 54 54 55 55 54 54 54 54 54 54 54 54 54 54 53 53 53 53 52 52 52 52 52 52 52 52 53 53 54 54 54 55 55 55 56 57 57 57 58 58 59 60 61 62 63 65 67 68 69 69 69 69 67 64 60 57 56 57 59 61 63 64 63 62 61 60 58 55 50 45 42 39
34 35 37 38 39 42 44 45 47 49 51 53 54 54 54 54 54 54 54 54 54 54 54 54 54 54 54 54 54 54 53 53 53 53 53 53 52 53 53 53 53 53 54 54 54 55 55 55 55 56 56 56 57 58 58 59 60 61 63 64 66 68 69 69 68 68 66 63 59 56 55 56 59 61 62 63 63 63 62 61 59 57 53 48 43 38 35
34 35 36 38 39 41 43 45 47 49 51 52 53 54 54 54 54 54 54 54 54 54 54 54 54 55 54 54 54 54 53 53 53 53 53 53 53 53 53 53 53 53 54 54 54 55 55 55 55 55 56 56 57 58 59 60 61 62 64 66 67 68 68 68 67 65 62 58 55 53 54 57 60 62 62 62 62 62 61 60 58 55 50 45 40 36 32
34 35 36 38 39 41 43 44 46 48 50 52 53 53 54 54 53 53 53 54 54 54 54 54 54 54 54 54 54 53 53 53 53 53 53 52 52 52 53 53 53 53 54 54 54 54 54 54 55 55 56 57 58 59 59 60 62 63 65 66 67 67 66 65 64 61 58 55 54 54 56 58 60 62 62 62 61 60 60 59 56 52 47 42 38 34 31
34 35 36 37 39 40 42 44 46 47 49 51 52 53 53 53 53 53 53 53 53 53 53 54 53 53 53 53 53 53 52 52 52 52 52 52 52 52 52 52 52 53 53 53 53 54 54 54 55 55 56 58 59 59 60 62 63 65 66 66 66 65 64 62 59 56 54 53 54 56 59 60 60 61 61 60 60 59 58 57 54 49 43 38 35 31 28
34 35 36 37 39 40 42 43 45 46 48 50 52 53 53 53 53 53 53 53 53 53 53 53 52 52 52 52 52 52 52 52 51 51 51 51 51 51 52 52 52 52 52 53 53 54 54 55 55 56 57 58 59 60 61 63 64 65 65 64 64 62 60 57 54 52 52 53 56 59 60 61 61 60 59 58 58 58 56 53 49 45 40 35 32 28 25
34 35 36 37 38 40 42 43 44 45 47 50 51 53 53 53 53 53 53 52 52 52 52 52 51 51 51 51 51 51 51 51 51 50 50 50 50 51 51 51 51 51 52 53 54 54 55 55 56 57 58 59 60 61 62 63 64 63 63 62 61 59 56 53 51 50 52 55 57 59 60 60 60 60 58 57 57 56 53 49 45 40 36 33 29 25 22
33 35 36 37 39 40 41 42 43 44 46 48 51 52 53 53 53 53 53 53 52 52 52 51 51 50 50 50 50 51 51 50 50 50 50 50 50 51 51 51 52 52 53 54 54 55 56 56 57 58 59 60 61 62 62 62 61 61 60 59 57 54 51 49 49 51 53 56 58 59 59 59 59 59 58 56 56 54 50 45 40 36 33 30 27 23 20
33 34 36 37 38 40 41 41 42 43 45 47 49 51 53 53 54 54 53 53 53 52 52 51 51 50 50 50 50 50 50 50 50 50 51 51 51 51 52 52 52 53 54 54 55 56 57 57 58 59 59 60 60 61 60 60 59 58 57 55 52 50 48 49 50 52 54 56 57 58 58 58 57 57 56 55 54 51 46 42 37 33 31 28 24 21 19
33 34 35 37 38 39 40 40 41 42 44 45 47 50 52 53 54 54 54 54 53 53 52 51 51 51 50 50 50 50 50 51 51 51 52 52 52 52 53 53 53 54 54 55 56 57 58 58 59 58 58 58 58 58 57 56 55 54 52 50 48 47 48 50 53 54 55 56 56 57 57 56 56 55 55 54 52 47 43 38 34 31 28 25 22 20 19
32 33 35 36 37 38 39 39 40 41 42 44 46 48 50 52 53 54 55 54 54 53 53 52 52 51 51 51 51 51 51 52 52 53 53 53 53 53 53 54 54 55 55 56 57 58 58 57 57 56 56 56 56 55 54 53 51 49 47 46 46 47 50 52 54 55 55 55 56 56 56 55 54 52 52 52 49 45 40 35 31 28 26 22 19 18 19
32 32 34 35 36 37 38 38 39 40 41 43 44 46 48 50 52 53 54 54 54 54 54 53 53 53 53 52 53 53 53 53 53 54 54 54 54 54 55 55 56 56 56 57 57 57 56 55 54 53 53 53 53 51 50 48 47 45 44 45 46 49 51 53 54 55 55 55 55 55 55 54 52 51 50 48 45 41 37 33 29 26 23 20 17 17 17
31 32 33 34 35 36 37 38 38 39 40 42 43 44 46 48 49 51 52 53 53 54 54 54 54 54 54 54 54 54 54 54 54 55 55 55 55 55 55 55 56 55 55 55 55 55 53 52 51 51 50 50 48 47 45 44 43 43 44 46 48 50 51 52 54 54 54 54 54 54 54 52 51 50 49 46 42 38 35 30 27 23 20 18 16 15 15
30 31 32 33 34 35 36 37 37 38 39 40 41 43 44 45 46 48 49 50 51 52 53 54 54 55 55 54 54 54 54 54 54 54 54 54 54 54 54 54 53 53 53 53 52 52 50 49 48 47 46 45 43 42 41 41 42 44 46 47 49 50 51 52 53 53 53 54 53 53 52 51 50 49 47 44 40 36 33 28 24 21 18 16 15 14 13
28 30 31 32 33 33 34 35 36 37 38 39 40 41 42 43 44 45 46 47 48 49 50 51 52 52 52 52 52 52 52 52 52 52 52 51 51 51 51 51 50 50 50 50 49 48 47 45 44 43 41 40 39 39 40 41 43 46 47 48 49 50 51 52 52 52 52 53 52 52 51 49 48 47 46 42 37 34 30 26 23 19 16 14 14 13 12
27 28 29 30 31 32 33 34 35 35 36 37 39 39 41 42 42 42 43 44 45 46 47 47 48 48 49 49 49 49 49 48 48 48 48 48 48 48 48 48 47 47 47 46 45 43 42 41 39 38 37 38 39 40 41 43 45 47 48 48 49 50 51 52 52 53 52 52 51 51 50 48 47 46 44 40 36 32 28 25 22 18 14 13 13 13 12
26 27 28 29 30 30 31 32 33 33 34 36 37 38 40 40 41 40 41 41 42 42 43 44 45 45 45 45 45 45 45 45 45 45 45 45 45 45 44 44 44 43 42 41 40 38 37 36 35 35 36 38 40 42 43 45 46 47 48 48 49 50 51 52 53 53 53 52 51 50 49 47 46 44 42 39 35 31 27 23 21 17 13 11 11 12 12
28 27 27 27 28 29 29 30 31 32 34 35 36 37 38 38 38 38 37 38 39 40 41 41 41 41 41 42 41 41 41 41 41 41 41 41 41 41 41 40 40 39 38 36 35 34 33 33 33 35 37 40 42 43 44 45 46 47 48 49 49 50 51 53 53 54 53 52 51 49 48 46 45 43 41 38 34 29 25 23 21 17 12 10 10 11 11
31 28 27 26 27 27 27 28 29 31 33 34 35 35 35 35 35 34 34 35 36 37 38 38 38 38 38 38 38 38 38 37 37 37 37 37 36 36 36 35 35 34 33 32 32 32 33 34 36 37 39 41 42 43 44 45 46 47 48 49 50 51 52 53 54 54 53 52 50 48 47 45 44 42 40 36 32 28 24 22 21 17 12 9 9 10 10
35 32 30 28 27 27 26 27 28 30 31 31 32 33 32 32 32 31 31 32 34 35 35 35 34 33 33 34 34 33 33 33 32 32 32 32 31 31 31 31 31 31 30 31 32 34 36 37 38 39 40 41 42 43 44 45 46 47 49 50 50 51 53 54 54 54 52 50 48 47 46 44 42 41 39 35 31 27 23 21 21 18 12 8 8 10 10
38 37 34 32 29 27 27 27 27 28 29 30 30 30 30 29 28 28 28 29 31 31 31 30 29 28 29 29 29 28 28 28 27 27 27 27 27 28 29 30 31 31 32 34 35 36 38 39 39 40 41 41 42 43 44 46 47 48 49 51 51 52 53 54 54 53 52 50 47 46 44 42 41 39 38 34 31 27 23 21 20 18 13 9 9 10 9
40 40 38 36 33 31 29 28 28 28 29 30 29 29 28 27 25 25 25 26 27 27 27 26 25 25 25 25 25 24 24 24 24 25 25 26 27 28 30 32 33 34 35 36 37 37 38 39 40 41 42 42 43 44 46 47 48 49 51 52 52 53 54 54 53 52 50 48 47 45 43 41 39 38 37 34 30 27 23 20 20 19 15 11 9 10 9
41 41 41 39 37 35 34 32 31 31 31 30 29 28 27 26 25 24 24 24 24 24 24 24 24 23 23 23 23 23 23 24 25 26 27 29 30 31 33 34 34 35 36 37 37 37 38 39 40 41 43 44 45 46 47 48 50 51 52 53 53 54 53 53 52 51 49 47 46 44 41 39 38 37 36 33 30 27 23 20 20 20 18 13 10 10 10
43 42 42 41 39 38 37 36 35 35 35 34 32 31 29 28 27 26 24 24 24 25 25 25 25 24 24 24 25 25 26 27 28 29 30 31 32 33 34 34 35 36 37 37 37 38 38 40 41 42 44 45 47 48 49 50 51 52 54 54 54 54 53 52 51 50 48 47 45 43 41 39 37 36 35 33 29 26 23 21 21 22 19 15 12 11 11
Wind_Direction
248 246 244 241 238 235 232 229 227 224 220 217 213 210 206 205 205 205 207 207 203 200 196 190 181 177 176 174 175 178 181 182 182 185 193 189 175 171 177 183 183 177 170 160 149 162 339 341 335 331 329 326 325 325 327 329 331 331 330 329 330 331 333 335 336 338 338 335 333 333 332 331 330 328 327 324 321 316 311 308 305 301 298 295 293 291 287
245 244 241 238 236 233 229 226 223 220 217 213 210 208 205 204 205 206 207 206 201 196 191 186 181 179 178 177 179 181 183 184 185 186 191 188 179 178 182 185 184 182 178 175 179 206 248 275 290 302 307 311 314 317 320 323 325 326 328 328 329 330 332 333 333 333 333 332 331 331 330 329 328 328 328 326 323 320 315 312 308 304 301 299 295 293 290
243 241 238 236 233 230 226 222 219 217 214 210 208 205 203 203 205 205 206 204 199 195 189 183 181 182 182 180 180 181 183 186 186 186 189 190 186 185 185 186 187 190 195 199 209 231 254 268 281 294 301 307 310 312 314 316 318 322 324 325 327 328 329 331 332 331 330 330 330 329 329 327 327 327 327 325 324 321 318 315 312 307 304 301 299 297 293
240 238 236 233 230 227 222 218 215 213 211 207 205 204 202 203 204 204 202 199 196 193 187 182 182 184 184 182 180 180 183 186 186 187 189 192 192 189 187 189 192 199 211 219 229 245 261 275 287 297 304 308 310 312 313 314 316 319 321 323 324 325 326 328 328 328 328 328 328 328 328 328 327 327 326 325 323 320 318 316 313 310 306 302 301 299 295
237 235 233 230 227 224 219 215 212 210 208 205 203 202 201 202 203 200 198 194 191 190 186 182 182 185 186 184 183 183 184 186 186 188 193 196 195 190 188 193 199 206 218 229 241 253 266 279 290 299 305 308 310 312 313 314 317 320 322 323 324 324 325 326 326 326 326 326 325 325 326 327 327 327 326 325 324 322 319 317 313 311 307 304 302 298 294
234 233 230 227 224 221 216 211 209 207 205 203 202 201 201 201 200 197 194 189 187 186 184 182 183 186 186 187 188 187 188 187 187 190 196 199 198 195 195 200 204 209 218 229 240 251 264 275 287 297 303 308 311 313 314 315 318 321 323 323 324 325 326 326 326 327 326 326 325 325 325 326 326 326 326 326 325 324 321 319 315 312 309 306 302 299 295
231 230 227 224 221 218 213 209 206 204 203 201 200 200 200 199 197 194 190 186 184 184 183 183 185 186 188 190 191 191 191 191 191 193 198 201 202 203 204 208 211 215 222 230 238 247 257 267 276 286 293 299 303 307 310 313 317 320 321 322 323 324 325 325 326 327 327 326 326 326 326 326 326 326 325 325 325 323 322 319 317 314 311 308 304 301 297
228 227 225 221 218 215 210 206 204 202 200 200 200 200 199 197 194 190 187 184 184 184 185 186 188 189 190 192 194 194 194 195 196 199 201 204 206 209 212 216 220 224 230 237 245 253 261 269 276 283 288 292 295 299 303 308 311 315 317 318 320 321 322 322 323 325 325 325 325 325 324 323 323 323 323 323 322 321 320 318 316 314 311 309 306 303 299
226 224 222 219 216 212 208 205 202 200 199 199 199 199 197 195 192 188 185 185 186 187 188 190 191 192 193 194 195 197 198 200 203 206 207 208 210 212 217 223 228 233 239 245 252 259 266 273 279 283 287 290 295 298 301 304 307 310 313 316 317 318 319 320 320 321 322 322 322 321 321 321 320 320 321 321 320 319 317 316 313 311 308 306 303 301 297
223 222 219 217 214 210 207 203 201 198 197 198 198 198 196 193 190 188 186 187 189 190 191 192 193 193 194 196 197 199 202 204 206 209 212 214 215 217 221 227 232 237 243 248 254 261 268 274 280 284 288 293 298 300 302 305 307 310 313 315 317 317 318 318 319 320 320 320 321 321 321 320 320 320 321 321 320 319 318 316 313 310 307 303 300 297 294
221 219 217 215 212 209 205 202 200 198 197 198 198 197 195 192 190 188 188 189 191 191 192 194 194 194 196 199 200 202 205 207 208 211 215 219 221 223 227 232 238 243 248 254 260 266 272 277 282 286 291 296 299 302 304 306 309 312 314 316 317 317 318 318 319 320 321 321 321 321 321 320 320 321 322 322 322 321 319 317 314 311 307 303 299 296 293
219 217 215 213 210 208 205 202 199 197 197 198 197 196 195 192 190 189 189 191 192 193 194 195 195 197 199 202 203 206 209 211 213 215 219 223 225 226 230 236 243 248 253 258 263 268 273 278 283 288 293 297 300 303 306 308 310 313 315 316 317 317 318 318 319 320 321 321 322 322 321 321 322 322 323 323 322 321 319 317 314 311 308 304 301 298 295
217 215 214 212 209 207 204 201 199 197 197 198 198 197 195 193 192 191 192 193 194 195 196 197 198 200 203 206 207 209 213 216 218 220 224 228 230 232 235 241 246 252 257 261 266 271 277 281 286 290 295 299 302 305 307 309 311 313 314 316 316 317 318 318 319 320 321 321 322 322 322 321 322 322 323 323 322 321 319 317 315 312 308 305 302 301 300
216 214 213 211 209 207 204 202 199 197 198 199 199 198 197 195 194 194 194 195 196 198 199 200 201 204 207 210 211 213 216 220 221 223 227 232 236 240 244 248 253 258 263 268 272 277 281 285 289 293 297 300 303 304 306 308 310 312 314 315 316 316 317 317 318 319 320 321 321 321 320 320 321 322 323 323 322 321 320 317 315 312 310 308 307 306 306
215 213 212 210 208 207 205 202 199 198 198 199 200 199 198 197 196 196 196 197 199 201 202 203 204 206 209 213 215 217 220 223 224 226 230 235 240 245 250 254 258 263 268 272 276 280 283 287 290 294 297 299 301 303 304 306 308 310 312 313 314 315 315 316 317 318 319 320 320 320 319 320 320 321 323 323 323 321 320 318 315 314 312 312 312 312 311
214 213 212 210 208 207 205 203 200 199 199 200 201 201 200 199 199 198 199 200 201 203 205 206 208 209 212 215 219 221 224 227 228 230 234 239 244 249 254 258 261 266 270 274 278 281 284 287 290 293 296 298 300 302 303 306 308 309 311 312 313 313 314 315 316 318 319 319 319 319 319 320 321 322 323 323 323 321 320 318 316 315 315 316 316 316 315
214 213 212 210 208 207 205 203 201 200 200 202 202 202 202 202 201 201 201 202 204 206 208 209 211 213 215 218 221 225 228 230 232 234 237 241 246 251 256 260 263 266 270 274 278 280 283 286 289 293 296 298 300 302 303 305 307 309 310 311 312 312 313 315 316 317 318 318 319 319 320 321 322 322 323 323 323 321 320 318 318 318 318 319 320 319 318
214 213 212 211 209 207 206 204 202 201 201 203 204 204 204 204 204 203 204 205 207 208 210 211 213 216 218 221 224 227 230 233 235 237 240 244 247 251 255 260 265 268 272 275 278 281 284 287 290 293 295 297 299 301 303 304 306 308 309 310 311 312 313 314 316 317 318 318 319 320 320 321 322 323 323 323 323 321 320 319 319 320 320 321 322 321 320
214 213 212 211 210 208 206 205 203 202 203 204 205 205 206 206 206 206 207 208 209 211 212 213 215 218 221 223 226 230 233 235 238 240 243 246 249 252 256 260 265 269 273 277 280 283 286 289 291 293 295 297 299 301 302 304 306 308 309 310 311 312 314 315 317 317 318 318 319 320 321 321 322 323 323 323 322 321 320 320 320 321 322 322 323 323 322
214 214 213 212 211 209 207 206 204 204 204 205 206 207 207 208 208 209 209 210 212 213 214 216 217 220 223 226 229 232 235 238 240 243 246 248 251 254 257 261 265 269 273 277 280 284 286 289 291 294 296 298 300 301 303 305 307 309 310 310 311 313 314 316 317 317 318 318 319 320 321 322 322 323 323 323 321 320 320 320 321 322 323 324 324 324 323
215 214 214 213 212 211 208 207 206 205 205 206 207 208 209 209 210 211 212 213 214 215 217 218 219 222 225 228 231 234 237 239 242 244 247 250 253 255 258 262 266 269 273 276 279 282 285 288 291 294 296 298 300 302 304 306 308 309 309 310 312 313 315 316 316 317 317 318 319 320 321 322 322 323 323 322 320 320 320 321 322 323 324 324 325 325 324
215 215 214 213 213 212 210 208 207 206 206 207 208 210 210 211 212 213 214 215 216 218 219 221 222 224 226 229 232 235 238 241 244 246 249 252 255 257 260 263 266 270 273 276 279 282 285 288 291 293 295 297 299 302 304 306 307 308 309 310 312 313 315 315 315 316 317 318 319 320 321 322 322 322 322 321 320 320 321 322 323 324 324 325 325 325 323
216 216 215 214 213 213 211 210 208 208 208 208 209 211 212 212 213 215 216 218 219 220 222 223 225 226 228 231 233 236 239 242 245 248 251 254 257 260 262 265 267 271 274 277 280 283 285 288 290 293 295 297 299 301 303 304 305 306 308 310 311 313 314 314 314 315 316 318 319 320 321 322 322 321 321 320 320 321 322 323 323 324 325 325 325 324 323
217 217 217 215 214 213 212 211 210 209 209 210 211 212 213 214 215 216 218 219 220 222 224 226 227 229 231 233 235 238 241 244 246 249 252 255 258 261 264 267 269 272 275 277 280 283 285 288 290 292 294 296 299 301 302 303 304 306 307 309 311 312 312 313 314 315 316 317 319 320 321 321 321 320 320 319 320 321 323 323 323 324 324 324 324 324 322
218 218 218 216 215 214 213 212 211 211 211 211 212 213 214 215 216 218 219 221 222 223 225 227 229 231 233 235 237 240 243 245 248 250 253 256 259 262 265 268 270 273 275 278 280 283 285 288 290 292 294 296 299 300 301 303 304 306 308 309 310 311 311 312 313 315 316 318 319 320 320 320 320 320 319 319 320 322 323 323 323 324 324 324 324 323 321
219 219 219 218 216 215 214 213 213 212 212 212 214 215 216 217 218 219 220 222 224 225 227 229 231 233 235 237 239 241 244 246 249 251 254 257 259 262 265 268 270 273 276 278 281 283 285 288 290 292 294 296 298 299 301 302 304 306 308 309 310 310 311 312 314 315 317 318 319 319 319 320 320 320 320 320 321 322 323 323 323 323 324 323 323 321 319
220 220 219 218 217 216 215 214 214 214 213 214 215 216 218 219 220 221 222 223 225 227 228 230 232 234 236 238 240 242 245 247 250 252 255 258 260 263 265 268 270 273 276 278 281 283 285 287 290 292 294 296 297 299 300 302 304 306 307 308 309 310 311 312 314 316 316 317 318 318 318 319 319 319 320 320 321 321 322 322 323 323 323 323 321 319 318
221 221 220 219 218 217 216 216 215 215 215 215 216 218 219 220 221 222 223 225 226 228 230 232 234 236 238 240 242 244 246 249 251 253 256 259 261 264 266 269 271 274 276 278 281 283 285 288 290 292 294 295 297 299 301 302 304 306 307 308 308 309 311 313 314 315 316 317 317 318 318 318 319 320 320 320 320 321 322 322 322 323 323 322 320 318 317
221 221 221 220 219 218 218 217 217 217 216 216 217 219 220 221 223 224 225 226 228 229 231 233 235 237 240 241 243 246 248 250 252 255 257 259 262 264 267 269 272 274 277 279 281 284 286 288 290 292 294 296 297 299 301 302 304 305 306 307 308 310 311 313 314 315 316 316 317 317 317 318 319 320 320 320 320 321 321 322 322 323 323 322 319 316 315
221 221 220 220 220 219 219 219 219 218 218 218 219 220 221 223 224 225 227 228 229 231 233 235 236 239 241 243 245 247 249 251 254 256 258 260 263 265 268 270 273 275 277 279 282 284 286 288 290 292 294 296 297 299 300 302 304 305 306 307 308 310 311 313 314 315 316 316 316 317 318 319 320 320 320 320 321 321 322 322 322 322 322 320 318 315 314
222 221 221 221 221 221 220 220 220 220 220 220 220 221 223 224 225 227 228 230 231 232 234 236 238 240 242 244 246 248 250 253 255 257 259 261 264 266 268 271 273 275 277 280 282 284 287 289 290 292 294 295 296 298 300 302 304 305 306 307 309 310 311 313 314 315 315 315 316 317 318 319 320 320 320 321 321 322 322 322 322 322 321 319 317 316 315
222 222 221 221 221 222 221 221 221 221 221 221 222 223 224 225 227 228 229 231 232 234 235 237 239 241 243 245 247 249 251 254 256 258 261 263 265 267 269 271 273 276 278 280 283 285 287 288 290 292 293 295 297 299 301 303 304 305 306 307 309 310 311 313 314 315 315 315 316 318 319 319 320 320 320 321 322 322 322 322 321 321 320 318 317 316 315
223 222 222 222 222 222 222 222 222 222 223 223 223 224 225 226 228 229 231 232 233 235 236 238 240 243 245 247 249 251 253 255 257 260 262 264 266 268 270 272 275 277 279 281 283 285 286 288 290 292 294 296 298 300 302 303 304 305 306 308 309 310 311 313 314 314 315 316 318 319 319 320 320 320 321 322 323 323 323 322 320 320 319 317 315 315 315
223 222 222 223 223 224 224 224 223 223 224 224 225 226 227 228 229 231 232 233 235 236 238 240 242 244 246 248 250 252 254 256 258 261 263 265 267 269 271 273 276 278 280 281 283 285 287 289 291 293 294 296 298 300 301 302 303 305 306 307 309 310 312 313 314 315 316 317 318 319 320 320 320 321 322 323 323 323 323 321 320 318 317 315 314 315 314
223 223 223 223 224 225 225 225 225 224 225 225 226 227 228 229 230 232 233 235 236 238 239 241 243 244 247 249 251 253 255 257 259 261 264 266 268 270 271 273 275 277 279 281 283 285 287 288 291 292 294 296 298 300 300 302 303 305 306 307 309 311 312 313 314 316 317 318 319 319 320 321 321 321 323 324 324 324 323 321 319 318 316 315 315 316 315
223 223 223 223 224 226 227 227 226 226 226 226 227 228 229 230 231 232 234 236 237 239 240 242 244 245 247 249 252 254 256 258 260 262 264 265 267 269 271 273 275 277 279 281 283 285 287 289 291 293 295 297 299 300 301 302 304 305 306 308 310 311 313 314 315 317 318 318 319 320 321 321 322 322 324 325 325 324 323 321 320 318 315 314 316 316 314
223 223 224 224 225 226 227 228 228 228 228 228 228 229 230 231 233 234 235 237 238 240 241 243 245 246 248 250 252 254 257 259 260 262 264 265 267 270 272 274 276 278 280 282 285 286 288 291 293 295 297 298 299 300 301 303 304 305 307 309 310 312 313 314 315 317 318 319 320 321 321 322 323 323 325 326 326 325 323 322 320 318 315 315 317 315 314
224 224 224 225 226 227 228 229 229 230 230 230 230 231 231 232 234 235 236 238 239 241 242 244 246 247 249 251 253 255 257 259 261 262 264 267 269 271 273 275 278 280 282 284 286 287 290 292 293 295 297 298 298 300 301 303 304 306 307 309 311 313 314 315 316 317 319 320 321 322 322 323 323 324 326 327 326 325 324 322 320 317 316 316 317 316 317
225 225 225 226 227 228 228 229 230 231 232 232 232 232 233 234 235 236 237 239 240 242 244 245 247 248 250 251 253 255 257 259 261 263 266 268 270 273 275 277 279 281 283 284 286 288 290 292 293 295 296 297 298 300 302 303 305 306 308 310 312 314 315 316 317 318 320 321 322 323 323 323 324 325 327 327 326 325 324 322 319 317 317 317 318 318 318
225 226 226 227 228 228 229 230 230 231 232 233 234 234 235 236 236 237 239 240 242 243 245 246 248 250 251 252 254 256 258 260 263 265 267 270 272 274 276 278 280 282 283 285 286 288 290 292 294 295 296 297 299 301 302 304 305 307 309 311 313 314 315 317 318 319 321 323 323 323 324 324 325 326 328 328 326 324 323 321 319 318 318 319 319 316 313
226 226 227 228 228 229 230 230 231 231 232 234 235 236 236 237 238 239 240 242 243 244 246 247 249 251 252 254 256 258 260 262 265 267 269 271 273 275 277 279 281 283 284 286 287 289 291 293 295 295 297 298 299 301 303 304 306 308 310 312 313 315 316 317 318 320 322 323 324 324 325 325 326 327 330 329 326 323 321 319 317 317 318 317 315 313 312
226 227 227 228 229 230 231 231 231 232 233 234 235 237 238 239 240 241 242 243 244 246 247 249 250 252 254 256 258 260 262 264 266 268 270 272 274 276 278 280 281 283 285 286 288 290 292 293 294 295 297 298 300 301 303 305 307 308 310 312 314 315 317 318 319 321 323 324 325 325 325 326 327 328 330 330 326 322 320 317 315 316 317 313 311 314 321
228 228 228 229 229 230 231 232 232 233 234 235 236 237 238 239 240 241 242 244 245 247 248 250 252 253 255 257 259 261 263 265 267 269 271 273 275 276 278 280 281 283 284 286 288 290 291 293 294 296 298 299 301 302 304 306 307 309 311 312 314 316 317 318 319 321 323 324 325 325 326 327 328 329 330 329 325 321 318 314 312 314 316 313 313 320 329
229 229 229 229 230 230 231 233 233 234 234 235 236 237 239 240 240 241 242 244 245 247 249 250 252 254 256 258 260 261 263 265 267 269 271 273 275 276 278 280 281 282 284 286 288 290 291 293 296 298 299 300 302 304 305 307 308 309 311 313 315 317 318 318 320 322 324 325 325 326 327 327 328 330 330 328 324 320 315 310 309 312 316 314 313 321 329
230 230 230 230 230 231 231 233 234 234 235 236 236 237 238 240 241 242 243 245 246 248 249 251 253 255 257 258 260 262 264 266 268 270 271 273 275 277 278 279 281 282 284 286 288 290 292 294 297 299 300 301 303 304 305 307 309 310 312 314 315 317 318 319 320 322 324 325 326 327 327 327 328 330 330 327 323 318 313 307 305 309 311 306 307 317 324
230 230 230 231 231 231 231 232 234 234 235 236 237 238 239 241 242 244 245 246 248 249 250 252 254 255 257 259 261 262 264 266 268 270 271 273 275 276 278 279 280 282 285 287 289 291 293 295 297 299 300 301 303 304 306 307 310 311 312 314 315 317 318 319 321 322 323 324 325 327 327 327 328 330 330 327 322 317 310 303 303 307 307 299 301 311 319
230 229 229 230 232 232 231 232 233 235 236 237 238 239 241 242 243 244 245 247 248 250 251 253 254 256 258 260 261 263 264 265 267 269 270 272 274 276 277 279 280 283 286 289 290 292 294 296 297 299 300 301 303 305 306 308 310 311 312 313 315 316 317 319 320 321 323 324 325 326 327 327 327 329 330 326 321 315 307 300 299 305 306 298 298 307 313
229 229 229 229 231 232 232 232 234 235 237 239 240 240 241 242 242 243 244 245 247 249 251 252 254 256 258 260 261 263 264 266 267 269 271 272 274 276 278 280 282 285 288 290 291 293 295 296 298 299 300 302 303 305 306 308 309 310 311 313 315 316 317 318 320 321 322 323 324 325 326 326 327 329 330 326 319 312 305 296 294 299 303 297 294 302 308
229 229 229 229 229 230 231 233 234 236 238 239 240 241 241 242 242 242 242 244 246 249 251 252 254 255 256 258 260 261 263 265 267 268 271 273 275 277 279 282 285 287 289 290 292 294 295 297 298 300 301 303 304 305 307 308 309 310 311 312 314 316 317 318 319 320 321 322 323 324 325 325 326 328 329 325 318 310 301 292 289 292 295 290 286 294 300
229 229 229 229 228 229 230 232 234 236 238 240 241 241 242 241 241 241 241 243 246 249 250 251 251 251 253 255 258 261 264 266 268 269 272 274 276 278 280 283 286 288 289 291 292 294 296 298 300 301 302 303 304 306 307 308 309 310 311 312 314 315 316 317 318 320 320 321 321 323 323 324 325 328 329 325 318 308 299 288 281 284 288 284 278 283 288
229 229 229 229 229 229 230 231 234 236 238 240 241 242 242 242 241 240 240 242 246 249 250 251 251 251 253 255 258 261 264 267 270 272 274 276 278 280 282 284 286 287 289 291 293 295 297 299 300 302 303 304 305 306 307 308 309 310 311 312 314 315 316 317 318 319 319 320 320 321 322 322 324 326 328 325 318 307 296 283 274 276 281 281 275 275 280
230 230 229 229 229 229 230 231 234 237 239 240 242 243 243 243 242 241 241 243 245 249 252 254 255 256 257 259 261 264 266 268 270 272 274 277 278 280 282 285 286 288 290 292 294 296 298 299 300 301 302 303 304 305 307 308 309 310 311 312 314 315 316 317 317 318 318 319 319 319 320 321 322 325 327 325 318 306 294 279 268 269 275 277 272 270 274
Height
10824 10825 10827 10828 10830 10832 10834 10836 10838 10840 10842 10844 10846 10849 10851 10852 10854 10856 10858 10860 10863 10865 10868 10870 10871 10873 10874 10876 10878 10880 10882 10883 10885 10887 10889 10889 10890 10891 10893 10895 10895 10896 10896 10896 10896 10896 10896 10896 10897 10897 10898 10898 10898 10897 10897 10897 10896 10896 10895 10894 10893 10893 10893 10893 10893 10893 10893 10891 10889 10888 10886 10884 10882 10880 10879 10878 10877 10876 10874 10873 10871 10869 10868 10869 10868 10867 10865
10820 10822 10823 10825 10827 10829 10831 10833 10835 10837 10839 10842 10844 10846 10848 10850 10852 10854 10856 10859 10861 10863 10865 10868 10870 10871 10872 10874 10877 10879 10881 10883 10885 10888 10889 10889 10890 10891 10892 10893 10894 10895 10895 10896 10896 10897 10897 10897 10897 10898 10898 10898 10897 10897 10896 10896 10895 10895 10894 10893 10892 10891 10890 10889 10888 10887 10888 10888 10888 10886 10884 10882 10880 10878 10875 10874 10872 10871 10870 10869 10868 10865 10863 10862 10863 10863 10861
10817 10818 10820 10822 10824 10826 10828 10830 10832 10834 10837 10839 10842 10844 10846 10848 10850 10852 10855 10858 10860 10862 10863 10866 10868 10870 10871 10873 10876 10879 10881 10884 10886 10887 10888 10889 10889 10890 10891 10892 10893 10894 10894 10895 10896 10896 10897 10897 10897 10897 10897 10897 10896 10896 10895 10894 10894 10894 10893 10892 10891 10890 10888 10887 10885 10883 10881 10880 10881 10881 10881 10880 10877 10875 10873 10871 10868 10866 10864 10863 10863 10861 10859 10857 10856 10856 10855
10813 10815 10817 10819 10821 10823 10826 10828 10830 10832 10834 10837 10839 10842 10844 10846 10848 10850 10853 10856 10858 10860 10862 10864 10867 10869 10871 10873 10875 10878 10880 10883 10885 10886 10887 10887 10888 10889 10889 10890 10891 10892 10893 10894 10895 10895 10896 10896 10896 10896 10896 10895 10895 10894 10893 10892 10892 10892 10891 10890 10889 10888 10887 10886 10884 10882 10880 10877 10874 10873 10873 10873 10872 10871 10869 10867 10865 10863 10860 10858 10856 10855 10854 10852 10851 10849 10848
10810 10811 10814 10816 10818 10820 10823 10825 10827 10829 10832 10835 10837 10839 10842 10844 10846 10848 10851 10853 10856 10859 10861 10863 10866 10868 10870 10872 10874 10876 10878 10880 10883 10884 10885 10886 10887 10888 10888 10889 10890 10891 10892 10893 10894 10894 10894 10895 10895 10895 10894 10893 10892 10891 10890 10889 10889 10888 10888 10887 10886 10885 10884 10883 10882 10880 10879 10877 10874 10871 10868 10867 10865 10864 10862 10861 10859 10857 10855 10853 10850 10848 10847 10846 10845 10843 10841
10806 10808 10810 10813 10815 10817 10820 10822 10825 10827 10830 10832 10835 10837 10839 10842 10844 10846 10849 10851 10855 10858 10860 10862 10864 10867 10869 10871 10873 10874 10876 10879 10881 10883 10884 10886 10887 10887 10887 10888 10889 10891 10891 10892 10893 10893 10893 10894 10894 10893 10893 10892 10890 10889 10887 10886 10886 10885 10884 10883 10882 10881 10880 10879 10878 10877 10875 10873 10871 10868 10866 10863 10861 10858 10856 10853 10851 10848 10846 10844 10841 10840 10838 10838 10838 10836 10834
10803 10805 10807 10809 10812 10814 10817 10820 10822 10825 10828 10830 10832 10835 10837 10839 10842 10844 10847 10850 10852 10855 10857 10859 10861 10864 10866 10869 10871 10874 10876 10878 10880 10881 10883 10885 10886 10886 10887 10888 10889 10890 10891 10891 10892 10892 10893 10893 10893 10893 10892 10891 10890 10888 10886 10885 10884 10883 10882 10880 10879 10878 10876 10875 10874 10873 10871 10868 10866 10863 10861 10859 10856 10854 10851 10848 10846 10843 10839 10836 10832 10830 10828 10828 10828 10828 10827
10799 10801 10804 10806 10809 10811 10814 10817 10820 10823 10825 10828 10830 10832 10835 10837 10839 10842 10845 10848 10850 10852 10854 10856 10859 10862 10865 10868 10871 10873 10876 10877 10879 10880 10882 10884 10885 10885 10886 10887 10888 10889 10889 10890 10890 10891 10891 10891 10892 10891 10891 10890 10889 10888 10886 10885 10884 10882 10881 10879 10877 10876 10874 10872 10870 10869 10867 10864 10862 10860 10858 10856 10854 10852 10849 10846 10843 10840 10837 10833 10828 10824 10820 10818 10817 10818 10818
10796 10798 10800 10803 10806 10808 10811 10814 10817 10820 10823 10825 10828 10830 10832 10835 10837 10840 10843 10845 10847 10849 10852 10855 10859 10862 10865 10868 10870 10873 10875 10876 10878 10879 10881 10882 10883 10884 10884 10885 10886 10887 10887 10888 10888 10889 10889 10889 10889 10889 10888 10887 10886 10885 10884 10884 10883 10881 10879 10878 10876 10873 10871 10869 10867 10866 10865 10863 10860 10858 10856 10853 10851 10849 10846 10843 10840 10836 10833 10829 10825 10821 10816 10812 10809 10809 10809
10792 10794 10797 10800 10803 10806 10809 10812 10815 10818 10820 10823 10825 10828 10830 10833 10835 10838 10840 10843 10845 10848 10852 10856 10860 10863 10865 10867 10869 10871 10873 10875 10876 10877 10878 10879 10881 10883 10884 10884 10884 10884 10885 10885 10886 10886 10887 10887 10886 10886 10885 10885 10883 10881 10880 10880 10879 10878 10876 10874 10872 10870 10868 10865 10863 10861 10860 10858 10856 10853 10850 10848 10846 10843 10840 10837 10833 10829 10825 10822 10818 10814 10811 10807 10804 10801 10800
10789 10791 10794 10797 10800 10803 10806 10809 10812 10815 10818 10820 10823 10825 10828 10831 10833 10836 10839 10841 10844 10848 10853 10856 10859 10862 10864 10865 10867 10869 10870 10872 10873 10873 10874 10876 10879 10881 10881 10881 10881 10882 10882 10883 10884 10884 10884 10884 10883 10882 10882 10881 10880 10878 10876 10875 10874 10873 10872 10870 10868 10865 10863 10861 10858 10856 10853 10851 10849 10846 10844 10841 10839 10836 10832 10828 10824 10820 10816 10812 10809 10805 10802 10799 10797 10794 10792
10785 10788 10791 10794 10797 10800 10803 10807 10810 10813 10815 10818 10820 10823 10826 10829 10832 10835 10838 10841 10844 10849 10852 10855 10857 10859 10861 10863 10865 10867 10868 10869 10870 10871 10873 10875 10876 10877 10878 10878 10879 10879 10880 10880 10881 10881 10881 10880 10880 10879 10879 10878 10876 10874 10872 10870 10869 10868 10867 10866 10864 10861 10859 10856 10853 10850 10847 10844 10842 10839 10836 10833 10830 10828 10824 10820 10817 10812 10807 10803 10799 10795 10793 10790 10788 10786 10783
10782 10785 10787 10790 10794 10797 10800 10804 10807 10810 10813 10815 10818 10821 10824 10827 10830 10833 10837 10840 10844 10847 10850 10853 10855 10857 10859 10861 10863 10865 10865 10866 10868 10871 10872 10872 10872 10874 10875 10876 10876 10876 10877 10877 10878 10878 10878 10877 10876 10876 10875 10874 10873 10871 10868 10866 10865 10863 10862 10861 10858 10856 10854 10851 10849 10846 10842 10839 10836 10832 10828 10825 10822 10820 10817 10813 10809 10804 10799 10795 10790 10786 10783 10780 10778 10776 10773
10779 10781 10784 10787 10791 10794 10797 10801 10804 10807 10810 10813 10816 10819 10822 10825 10829 10832 10836 10839 10842 10845 10847 10850 10853 10855 10857 10858 10860 10862 10862 10864 10867 10869 10869 10868 10869 10871 10873 10873 10873 10873 10873 10874 10875 10875 10874 10873 10873 10872 10872 10871 10869 10868 10866 10864 10862 10860 10858 10856 10854 10851 10849 10846 10844 10841 10838 10835 10831 10828 10824 10820 10816 10813 10810 10806 10801 10796 10791 10786 10782 10777 10773 10770 10767 10764 10761
10775 10778 10781 10784 10787 10791 10794 10798 10801 10805 10808 10811 10813 10817 10820 10823 10827 10830 10834 10837 10840 10842 10845 10848 10850 10852 10854 10855 10857 10859 10860 10862 10864 10866 10866 10866 10867 10869 10870 10870 10870 10870 10870 10870 10871 10871 10871 10870 10870 10869 10868 10867 10866 10865 10863 10861 10859 10857 10855 10853 10850 10848 10845 10843 10840 10837 10834 10831 10827 10823 10819 10815 10810 10807 10804 10799 10794 10788 10783 10778 10773 10769 10764 10760 10756 10751 10748
10772 10775 10778 10781 10784 10788 10791 10795 10798 10801 10805 10808 10811 10814 10818 10821 10825 10829 10832 10835 10838 10840 10842 10845 10847 10850 10852 10853 10855 10856 10857 10859 10862 10863 10863 10864 10866 10867 10867 10866 10866 10867 10867 10867 10868 10868 10868 10867 10867 10866 10865 10864 10863 10861 10859 10857 10855 10853 10851 10849 10847 10844 10841 10838 10835 10832 10829 10825 10822 10818 10813 10808 10803 10799 10795 10792 10787 10781 10776 10770 10766 10761 10756 10751 10746 10741 10735
10769 10771 10774 10777 10781 10784 10788 10792 10795 10798 10802 10805 10809 10812 10816 10819 10823 10826 10829 10832 10835 10837 10839 10842 10845 10848 10850 10851 10852 10854 10855 10857 10858 10860 10861 10862 10864 10865 10864 10863 10863 10864 10864 10864 10865 10864 10864 10864 10863 10863 10862 10860 10859 10857 10855 10853 10852 10850 10847 10845 10842 10839 10836 10833 10830 10827 10823 10820 10815 10811 10806 10801 10796 10791 10787 10783 10779 10773 10768 10763 10758 10753 10748 10743 10737 10731 10726
10766 10768 10771 10774 10778 10781 10785 10788 10792 10795 10799 10802 10806 10810 10813 10817 10820 10824 10827 10829 10831 10834 10837 10840 10843 10845 10847 10849 10850 10851 10852 10853 10855 10857 10859 10860 10862 10862 10861 10860 10860 10860 10861 10861 10861 10860 10860 10860 10859 10859 10858 10856 10855 10853 10851 10850 10848 10846 10843 10840 10837 10834 10832 10828 10825 10822 10818 10814 10809 10804 10799 10794 10789 10784 10779 10775 10771 10765 10760 10755 10750 10745 10741 10736 10730 10724 10718
10763 10765 10768 10771 10774 10778 10781 10785 10789 10792 10796 10799 10803 10807 10811 10814 10817 10820 10823 10826 10828 10831 10834 10837 10840 10842 10844 10845 10847 10848 10849 10850 10852 10854 10856 10857 10858 10859 10858 10858 10857 10857 10857 10857 10857 10856 10855 10855 10855 10854 10853 10852 10851 10849 10847 10845 10843 10841 10838 10835 10832 10829 10826 10822 10818 10814 10810 10807 10802 10797 10792 10787 10782 10777 10771 10767 10763 10758 10753 10749 10744 10739 10733 10728 10723 10717 10711
10759 10762 10765 10768 10771 10774 10778 10782 10785 10789 10792 10796 10800 10804 10807 10811 10814 10817 10820 10822 10825 10828 10832 10834 10837 10839 10840 10842 10844 10845 10846 10848 10850 10851 10852 10853 10855 10856 10855 10855 10854 10855 10854 10854 10853 10852 10851 10851 10850 10849 10848 10847 10845 10843 10841 10839 10837 10834 10832 10829 10825 10823 10820 10816 10811 10807 10803 10799 10795 10790 10785 10779 10775 10770 10764 10759 10755 10750 10746 10742 10738 10733 10727 10721 10716 10711 10705
10756 10759 10762 10765 10768 10771 10775 10778 10782 10785 10789 10793 10797 10800 10804 10808 10811 10814 10817 10819 10822 10825 10828 10831 10833 10835 10837 10839 10840 10841 10843 10844 10846 10848 10849 10850 10851 10852 10852 10852 10851 10851 10851 10851 10850 10849 10848 10847 10846 10845 10844 10842 10840 10838 10836 10834 10831 10828 10825 10822 10819 10816 10813 10809 10805 10800 10797 10793 10789 10784 10778 10772 10767 10762 10757 10752 10747 10744 10739 10735 10730 10726 10720 10715 10709 10704 10700
10753 10756 10759 10762 10765 10768 10772 10775 10778 10782 10785 10789 10793 10797 10801 10804 10808 10811 10813 10816 10819 10822 10824 10827 10830 10832 10833 10835 10836 10837 10839 10841 10843 10844 10845 10846 10846 10847 10848 10848 10848 10848 10848 10847 10846 10845 10844 10843 10842 10841 10840 10838 10836 10834 10832 10829 10826 10823 10820 10817 10814 10810 10807 10803 10799 10794 10790 10786 10782 10777 10772 10766 10760 10755 10750 10746 10741 10737 10732 10727 10722 10718 10713 10708 10703 10699 10694
10750 10753 10755 10758 10761 10765 10769 10772 10775 10778 10782 10786 10790 10793 10797 10801 10804 10807 10810 10813 10816 10819 10821 10823 10826 10828 10830 10832 10833 10834 10836 10837 10839 10840 10841 10842 10842 10843 10843 10844 10844 10844 10844 10843 10842 10841 10841 10839 10838 10837 10835 10833 10832 10830 10828 10825 10822 10819 10815 10812 10809 10805 10801 10797 10793 10788 10784 10780 10775 10771 10766 10760 10754 10748 10743 10739 10735 10730 10726 10720 10715 10710 10706 10701 10697 10693 10689
10747 10750 10752 10755 10758 10761 10765 10769 10772 10775 10778 10782 10786 10789 10793 10797 10800 10803 10806 10809 10812 10815 10818 10820 10822 10824 10826 10828 10829 10831 10832 10834 10835 10836 10837 10838 10838 10838 10839 10839 10840 10840 10839 10838 10838 10837 10837 10835 10834 10832 10830 10829 10827 10826 10823 10820 10817 10815 10811 10808 10805 10800 10796 10792 10787 10783 10778 10773 10769 10764 10759 10754 10748 10743 10737 10733 10729 10725 10720 10714 10708 10703 10699 10694 10690 10686 10683
10744 10746 10749 10752 10755 10758 10761 10765 10768 10771 10775 10778 10782 10785 10789 10793 10797 10800 10803 10806 10808 10812 10814 10816 10818 10820 10822 10824 10826 10827 10829 10830 10831 10832 10833 10834 10834 10834 10834 10835 10835 10835 10835 10834 10833 10833 10832 10831 10829 10828 10826 10824 10822 10820 10818 10815 10812 10809 10806 10803 10800 10795 10791 10787 10782 10777 10772 10766 10762 10757 10752 10748 10742 10737 10732 10727 10722 10719 10715 10709 10703 10697 10692 10687 10684 10680 10677
10740 10743 10746 10749 10752 10755 10758 10761 10764 10767 10771 10775 10778 10782 10785 10789 10792 10796 10799 10802 10805 10808 10810 10812 10814 10816 10818 10820 10822 10823 10824 10826 10827 10828 10829 10830 10830 10830 10831 10831 10830 10830 10830 10829 10829 10828 10828 10826 10825 10823 10821 10819 10817 10814 10812 10809 10807 10804 10801 10798 10794 10790 10785 10781 10776 10771 10766 10760 10755 10750 10746 10741 10737 10732 10726 10720 10715 10712 10708 10704 10698 10693 10687 10682 10678 10674 10671
10737 10740 10743 10745 10748 10751 10754 10757 10760 10764 10767 10771 10775 10778 10782 10785 10788 10792 10795 10798 10801 10804 10806 10808 10810 10812 10814 10816 10818 10819 10820 10822 10823 10824 10825 10825 10826 10826 10826 10826 10826 10826 10825 10825 10824 10823 10823 10822 10820 10818 10816 10814 10811 10809 10807 10804 10802 10799 10796 10793 10788 10784 10779 10775 10771 10766 10760 10755 10749 10744 10739 10735 10731 10727 10722 10716 10710 10705 10701 10697 10692 10688 10683 10678 10672 10669 10666
10734 10736 10739 10742 10745 10748 10751 10754 10757 10760 10764 10768 10771 10774 10778 10781 10784 10788 10791 10793 10797 10799 10802 10804 10806 10807 10809 10811 10813 10814 10816 10817 10818 10820 10820 10821 10821 10821 10821 10821 10821 10821 10821 10820 10819 10818 10817 10816 10815 10813 10811 10809 10806 10804 10801 10799 10796 10794 10791 10787 10782 10778 10774 10770 10765 10760 10755 10750 10744 10738 10733 10729 10725 10721 10716 10711 10705 10701 10696 10691 10686 10682 10678 10673 10668 10664 10661
10730 10733 10736 10738 10741 10744 10747 10750 10753 10756 10760 10764 10767 10770 10774 10777 10780 10783 10786 10789 10792 10795 10797 10799 10801 10803 10805 10807 10808 10810 10811 10813 10814 10815 10816 10816 10817 10817 10817 10817 10817 10816 10815 10815 10814 10813 10812 10811 10810 10808 10805 10803 10801 10799 10796 10794 10791 10788 10785 10781 10777 10772 10768 10764 10759 10754 10749 10744 10739 10733 10728 10723 10719 10714 10709 10704 10699 10695 10690 10685 10681 10676 10672 10668 10664 10661 10657
10727 10729 10732 10735 10738 10741 10743 10746 10750 10753 10756 10760 10763 10766 10769 10773 10776 10779 10782 10785 10788 10791 10793 10795 10797 10798 10800 10802 10804 10805 10807 10808 10809 10810 10811 10812 10812 10812 10812 10812 10812 10811 10810 10809 10808 10807 10806 10805 10804 10802 10800 10798 10796 10793 10791 10789 10786 10783 10779 10775 10770 10766 10762 10757 10753 10748 10743 10738 10733 10728 10723 10718 10713 10708 10704 10698 10693 10688 10683 10679 10675 10671 10667 10663 10660 10657 10654
10724 10726 10729 10731 10734 10737 10740 10743 10746 10749 10752 10756 10759 10762 10765 10768 10772 10775 10778 10781 10784 10786 10788 10790 10792 10793 10795 10797 10799 10801 10802 10803 10804 10805 10806 10807 10808 10808 10807 10807 10807 10806 10805 10804 10803 10802 10801 10800 10799 10797 10795 10793 10791 10788 10786 10784 10781 10777 10772 10769 10765 10760 10756 10751 10746 10742 10737 10732 10728 10724 10719 10714 10708 10702 10698 10693 10688 10682 10677 10672 10668 10664 10661 10658 10655 10653 10651
10720 10723 10725 10728 10731 10733 10736 10739 10742 10745 10749 10752 10755 10758 10761 10764 10767 10771 10773 10776 10779 10781 10784 10785 10787 10789 10791 10793 10794 10796 10797 10798 10799 10800 10801 10802 10803 10803 10802 10802 10801 10801 10800 10799 10798 10797 10796 10795 10794 10792 10790 10787 10785 10783 10781 10778 10774 10771 10767 10763 10759 10754 10750 10746 10741 10736 10731 10726 10722 10718 10714 10709 10703 10697 10692 10687 10682 10677 10672 10666 10662 10659 10656 10653 10650 10648 10647
10717 10720 10722 10725 10727 10729 10732 10735 10738 10742 10745 10748 10751 10754 10757 10760 10763 10766 10769 10771 10774 10777 10779 10780 10782 10785 10786 10788 10789 10791 10792 10793 10795 10796 10797 10797 10797 10797 10797 10796 10796 10795 10795 10794 10793 10792 10791 10790 10788 10787 10784 10781 10780 10778 10775 10771 10767 10764 10760 10756 10752 10748 10744 10740 10736 10731 10725 10720 10715 10711 10706 10702 10698 10692 10687 10682 10677 10671 10666 10661 10656 10653 10651 10648 10646 10645 10644
10714 10716 10719 10721 10723 10726 10728 10731 10734 10738 10741 10744 10747 10750 10753 10756 10759 10761 10764 10767 10769 10772 10774 10776 10778 10780 10782 10783 10785 10786 10787 10788 10790 10791 10791 10791 10791 10791 10791 10791 10791 10790 10789 10788 10787 10786 10785 10784 10783 10781 10779 10776 10774 10772 10769 10765 10761 10758 10754 10750 10746 10742 10739 10734 10730 10725 10720 10715 10710 10705 10700 10695 10690 10686 10682 10677 10672 10666 10661 10656 10651 10648 10647 10645 10643 10642 10641
10711 10713 10715 10718 10720 10722 10724 10727 10731 10734 10737 10740 10743 10746 10749 10752 10755 10757 10759 10762 10764 10767 10769 10771 10774 10776 10777 10779 10780 10781 10781 10783 10784 10785 10786 10786 10786 10786 10786 10786 10786 10785 10784 10783 10782 10781 10780 10779 10778 10776 10774 10772 10769 10766 10762 10759 10756 10752 10748 10744 10740 10736 10733 10729 10724 10720 10716 10711 10705 10700 10695 10690 10684 10679 10675 10671 10666 10661 10656 10652 10648 10645 10642 10641 10640 10640 10639
10707 10710 10712 10714 10716 10718 10720 10723 10727 10730 10733 10736 10738 10741 10744 10747 10750 10752 10755 10757 10759 10762 10764 10767 10769 10771 10773 10774 10775 10775 10776 10778 10779 10780 10780 10781 10781 10781 10781 10781 10781 10780 10779 10778 10777 10776 10775 10773 10772 10770 10768 10766 10763 10759 10755 10752 10749 10745 10742 10738 10734 10731 10727 10723 10719 10716 10711 10706 10700 10695 10690 10685 10679 10674 10669 10666 10661 10655 10651 10647 10644 10641 10639 10638 10637 10637 10636
10704 10706 10708 10710 10712 10714 10717 10720 10723 10726 10729 10732 10734 10737 10740 10742 10745 10748 10750 10752 10754 10757 10759 10762 10764 10766 10768 10769 10770 10770 10772 10773 10773 10774 10774 10775 10775 10776 10776 10775 10775 10774 10773 10772 10771 10770 10768 10767 10766 10764 10762 10759 10755 10752 10749 10746 10743 10739 10736 10732 10729 10726 10722 10718 10714 10711 10706 10702 10696 10690 10685 10680 10675 10669 10664 10660 10656 10651 10646 10643 10640 10638 10636 10635 10635 10634 10634
10700 10702 10704 10707 10709 10711 10714 10716 10719 10722 10725 10728 10730 10733 10735 10738 10740 10743 10745 10747 10750 10752 10755 10757 10759 10761 10763 10764 10765 10766 10766 10767 10767 10768 10769 10769 10770 10770 10770 10770 10769 10769 10768 10766 10765 10763 10762 10761 10759 10758 10755 10752 10749 10746 10743 10740 10737 10733 10730 10727 10724 10720 10717 10712 10708 10705 10701 10696 10691 10686 10680 10675 10670 10665 10660 10655 10651 10647 10643 10640 10637 10635 10634 10633 10633 10632 10631
10696 10699 10701 10703 10705 10708 10710 10713 10716 10718 10721 10723 10726 10728 10730 10733 10736 10738 10740 10743 10745 10748 10750 10752 10754 10756 10758 10759 10760 10760 10761 10761 10761 10762 10763 10764 10764 10764 10764 10764 10763 10763 10762 10760 10758 10757 10757 10755 10754 10752 10749 10746 10743 10740 10737 10734 10731 10728 10725 10722 10719 10716 10712 10707 10703 10699 10695 10691 10686 10681 10676 10671 10666 10662 10657 10651 10646 10642 10639 10637 10635 10633 10632 10631 10631 10630 10629
10693 10695 10697 10699 10702 10704 10707 10709 10712 10714 10717 10719 10721 10724 10726 10728 10731 10733 10736 10738 10741 10743 10745 10747 10749 10750 10752 10753 10754 10755 10755 10756 10757 10757 10758 10759 10759 10759 10758 10758 10757 10756 10755 10754 10752 10751 10751 10749 10748 10746 10743 10739 10737 10734 10732 10729 10726 10723 10720 10718 10715 10711 10707 10702 10697 10693 10689 10685 10681 10675 10670 10666 10661 10658 10654 10649 10643 10639 10636 10634 10632 10631 10630 10630 10629 10629 10628
10690 10692 10694 10696 10698 10701 10703 10705 10708 10710 10712 10715 10717 10719 10721 10724 10726 10729 10731 10734 10736 10738 10740 10742 10743 10745 10746 10747 10749 10750 10750 10751 10752 10752 10753 10753 10753 10753 10752 10751 10750 10749 10748 10747 10745 10744 10744 10743 10741 10739 10736 10734 10731 10729 10726 10724 10721 10718 10716 10713 10710 10706 10702 10698 10693 10688 10684 10680 10676 10671 10666 10661 10657 10653 10649 10645 10640 10636 10634 10632 10630 10629 10629 10628 10628 10628 10627
10686 10688 10690 10693 10695 10697 10699 10701 10704 10706 10708 10710 10712 10715 10717 10719 10722 10724 10727 10729 10731 10733 10735 10736 10738 10739 10740 10742 10743 10745 10745 10746 10746 10747 10747 10747 10747 10747 10746 10745 10744 10743 10742 10740 10739 10738 10738 10737 10735 10733 10731 10728 10726 10724 10722 10719 10717 10714 10711 10708 10705 10701 10697 10692 10688 10684 10680 10676 10671 10667 10662 10658 10653 10649 10646 10642 10637 10634 10631 10629 10628 10628 10628 10627 10626 10626 10625
10683 10685 10687 10689 10691 10693 10695 10698 10700 10702 10704 10706 10708 10710 10712 10714 10717 10720 10722 10724 10726 10728 10729 10731 10732 10733 10735 10736 10738 10739 10740 10740 10741 10741 10741 10741 10741 10740 10740 10739 10738 10737 10736 10734 10734 10733 10732 10731 10729 10727 10725 10723 10721 10719 10717 10715 10712 10709 10706 10703 10700 10696 10692 10687 10683 10680 10676 10672 10667 10663 10658 10654 10650 10646 10642 10639 10635 10631 10629 10627 10627 10626 10626 10626 10625 10624 10623
10680 10682 10684 10686 10688 10690 10692 10694 10696 10698 10701 10702 10704 10706 10707 10709 10712 10714 10717 10719 10721 10723 10724 10725 10727 10728 10729 10731 10732 10733 10734 10735 10735 10736 10736 10735 10735 10734 10734 10733 10732 10731 10730 10729 10729 10728 10726 10725 10724 10722 10720 10718 10716 10714 10712 10710 10707 10704 10701 10698 10694 10691 10687 10682 10678 10675 10671 10668 10663 10659 10654 10651 10647 10643 10639 10636 10632 10629 10627 10625 10625 10625 10624 10624 10623 10622 10622
10677 10679 10681 10682 10684 10686 10688 10690 10692 10694 10696 10697 10699 10700 10702 10704 10707 10710 10712 10714 10716 10718 10719 10720 10722 10723 10725 10726 10727 10728 10729 10729 10730 10730 10730 10729 10729 10728 10728 10727 10726 10725 10725 10724 10723 10722 10721 10720 10719 10718 10716 10713 10711 10709 10707 10704 10702 10699 10696 10693 10690 10686 10682 10678 10674 10670 10666 10663 10659 10655 10651 10647 10644 10640 10637 10633 10630 10627 10625 10624 10623 10623 10623 10623 10622 10621 10621
10674 10675 10677 10679 10681 10683 10685 10687 10689 10690 10691 10692 10694 10696 10698 10700 10703 10706 10709 10711 10712 10713 10714 10715 10717 10719 10720 10721 10722 10723 10724 10724 10724 10724 10724 10724 10723 10722 10722 10721 10720 10720 10720 10720 10719 10718 10717 10716 10715 10714 10711 10709 10706 10704 10701 10699 10696 10693 10690 10688 10685 10681 10677 10673 10669 10665 10662 10658 10655 10651 10647 10644 10641 10637 10634 10630 10627 10625 10623 10622 10621 10621 10621 10621 10621 10620 10620
10670 10672 10674 10676 10678 10680 10682 10683 10684 10685 10686 10688 10690 10692 10694 10697 10700 10703 10705 10706 10707 10707 10709 10711 10712 10714 10715 10716 10717 10718 10719 10719 10719 10719 10719 10719 10718 10717 10717 10716 10716 10715 10716 10715 10714 10713 10712 10711 10710 10709 10707 10704 10702 10699 10697 10694 10691 10688 10685 10683 10680 10676 10673 10669 10665 10661 10658 10654 10651 10647 10644 10641 10638 10634 10631 10628 10625 10623 10621 10620 10619 10619 10620 10620 10619 10619 10619
10666 10669 10671 10673 10675 10677 10678 10680 10681 10682 10683 10684 10686 10688 10691 10693 10696 10698 10700 10701 10702 10702 10704 10706 10708 10710 10710 10711 10712 10713 10713 10714 10714 10714 10714 10714 10714 10713 10712 10711 10711 10711 10711 10711 10710 10709 10707 10706 10705 10704 10702 10699 10697 10695 10692 10690 10687 10684 10681 10678 10675 10672 10668 10664 10661 10657 10654 10650 10647 10644 10641 10638 10635 10632 10629 10626 10623 10620 10619 10618 10617 10618 10618 10618 10618 10618 10618
10662 10664 10667 10669 10671 10673 10675 10676 10678 10679 10679 10680 10682 10684 10687 10690 10692 10695 10696 10697 10697 10698 10700 10703 10704 10705 10706 10706 10707 10708 10709 10709 10710 10710 10710 10710 10710 10709 10708 10707 10707 10707 10707 10706 10705 10704 10702 10701 10699 10698 10696 10694 10692 10689 10687 10685 10682 10679 10676 10673 10670 10667 10663 10660 10656 10653 10649 10646 10643 10640 10637 10635 10632 10629 10626 10623 10621 10618 10617 10616 10615 10616 10616 10616 10616 10616 10616
10657 10659 10662 10665 10668 10670 10672 10673 10674 10675 10676 10677 10679 10681 10683 10686 10689 10691 10692 10693 10694 10695 10697 10699 10700 10701 10702 10703 10704 10704 10705 10705 10706 10706 10706 10706 10706 10705 10704 10704 10703 10703 10702 10701 10700 10699 10697 10695 10693 10692 10690 10688 10686 10684 10681 10679 10677 10674 10671 10668 10665 10662 10659 10655 10652 10648 10645 10642 10639 10637 10634 10632 10629 10626 10624 10621 10618 10616 10615 10614 10613 10613 10614 10614 10614 10615 10615
10651 10654 10657 10660 10663 10666 10668 10670 10671 10672 10672 10674 10676 10678 10680 10683 10685 10687 10689 10690 10690 10692 10693 10694 10696 10697 10698 10699 10700 10701 10702 10702 10702 10702 10702 10702 10702 10701 10700 10699 10699 10698 10697 10696 10695 10694 10693 10691 10688 10686 10684 10682 10680 10678 10676 10673 10671 10668 10665 10662 10660 10657 10654 10650 10647 10644 10641 10638 10635 10633 10631 10628 10626 10624 10621 10619 10616 10614 10612 10612 10611 10611 10611 10612 10612 10612 10613
10645 10648 10651 10655 10659 10662 10664 10666 10667 10668 10668 10670 10672 10674 10676 10679 10681 10683 10685 10687 10688 10688 10689 10690 10692 10694 10695 10696 10697 10698 10698 10698 10698 10698 10698 10698 10697 10696 10696 10695 10694 10693 10692 10691 10690 10689 10688 10686 10684 10682 10679 10677 10675 10672 10670 10668 10665 10662 10659 10656 10654 10651 10648 10645 10642 10639 10636 10633 10631 10629 10627 10625 10623 10621 10618 10616 10614 10612 10610 10609 10609 10609 10609 10609 10610 10610 10611